When you browse on this site, cookies collect data to enhance your experience and personalize the content and advertising you see.
Visit our Privacy Policy to learn more. By continuing to use the site, you agree to this use of cookies and data.
  • In Switzerland
  • List of Countries
  • For 7 days
  • Water Temperature
  • Weather Map
  • Weather Widgets
  • user-avatar
    Login

    Hourly Weather Szentendre

    Today, 10 April, Friday

    Time Temperature Precipitation Wind Pressure Humidity
    00:00 +13°C° 0 mm 2 mps 752 mmHg 56%
    01:00 +13°C° 0 mm 2 mps 751 mmHg 57%
    02:00 +12°C° 0 mm 2 mps 751 mmHg 59%
    03:00 +12°C° 0 mm 2 mps 751 mmHg 60%
    04:00 +12°C° 0 mm 2 mps 752 mmHg 62%
    05:00 +12°C° 0 mm 2 mps 752 mmHg 62%
    06:00 +13°C° 0 mm 2 mps 752 mmHg 62%
    07:00 +14°C° 0 mm 2 mps 753 mmHg 62%
    08:00 +14°C° 0 mm 3 mps 753 mmHg 56%
    09:00 +17°C° 0 mm 3 mps 753 mmHg 49%
    10:00 +19°C° 0 mm 3 mps 753 mmHg 43%
    11:00 +19°C° 0 mm 3 mps 753 mmHg 41%
    12:00 +19°C° 0 mm 3 mps 753 mmHg 39%
    13:00 +19°C° 0 mm 4 mps 753 mmHg 36%
    14:00 +19°C° 0 mm 3 mps 753 mmHg 37%
    15:00 +19°C° 0 mm 3 mps 753 mmHg 38%
    16:00 +19°C° 0 mm 3 mps 752 mmHg 38%
    17:00 +17°C° 0 mm 3 mps 752 mmHg 45%
    18:00 +15°C° 0 mm 2 mps 753 mmHg 51%
    19:00 +14°C° 0 mm 2 mps 753 mmHg 57%
    20:00 +13°C° 0 mm 2 mps 753 mmHg 58%
    21:00 +12°C° 0 mm 1 mps 753 mmHg 59%
    22:00 +12°C° 0 mm 1 mps 753 mmHg 59%
    23:00 +11°C° 0 mm 1 mps 754 mmHg 58%

    Tomorrow, 11 April, Saturday

    Time Temperature Precipitation Wind Pressure Humidity
    00:00 +11°C° 0 mm 1 mps 754 mmHg 57%
    01:00 +10°C° 0 mm 1 mps 754 mmHg 57%
    02:00 +10°C° 0 mm 1 mps 754 mmHg 57%
    03:00 +9°C° 0 mm 1 mps 754 mmHg 57%
    04:00 +8°C° 0 mm 0 mps 754 mmHg 58%
    05:00 +8°C° 0 mm 0 mps 754 mmHg 56%
    06:00 +9°C° 0 mm 0 mps 754 mmHg 54%
    07:00 +10°C° 0 mm 0 mps 755 mmHg 52%
    08:00 +12°C° 0 mm 0 mps 755 mmHg 48%
    09:00 +14°C° 0 mm 1 mps 755 mmHg 43%
    10:00 +16°C° 0 mm 1 mps 755 mmHg 39%
    11:00 +18°C° 0 mm 1 mps 755 mmHg 37%
    12:00 +19°C° 0 mm 1 mps 755 mmHg 34%
    13:00 +20°C° 0 mm 1 mps 755 mmHg 32%
    14:00 +20°C° 0 mm 1 mps 754 mmHg 32%
    15:00 +19°C° 0 mm 1 mps 754 mmHg 32%
    16:00 +19°C° 0 mm 1 mps 754 mmHg 32%
    17:00 +18°C° 0 mm 1 mps 754 mmHg 37%
    18:00 +15°C° 0 mm 1 mps 754 mmHg 41%
    19:00 +14°C° 0 mm 1 mps 754 mmHg 45%
    20:00 +13°C° 0 mm 1 mps 754 mmHg 48%
    21:00 +12°C° 0 mm 1 mps 754 mmHg 50%
    22:00 +12°C° 0 mm 1 mps 755 mmHg 52%
    23:00 +11°C° 0 mm 1 mps 754 mmHg 55%

    Day after tomorrow, 12 April, Sunday

    Time Temperature Precipitation Wind Pressure Humidity
    00:00 +11°C° 0 mm 1 mps 754 mmHg 58%
    01:00 +10°C° 0 mm 1 mps 754 mmHg 61%
    02:00 +10°C° 0 mm 1 mps 754 mmHg 63%
    03:00 +9°C° 0 mm 1 mps 754 mmHg 65%
    04:00 +9°C° 0 mm 1 mps 754 mmHg 67%
    05:00 +10°C° 0 mm 1 mps 754 mmHg 65%
    06:00 +10°C° 0 mm 1 mps 754 mmHg 63%
    07:00 +10°C° 0 mm 2 mps 754 mmHg 61%
    08:00 +12°C° 0 mm 2 mps 754 mmHg 57%
    09:00 +14°C° 0 mm 2 mps 754 mmHg 54%
    10:00 +14°C° 0 mm 3 mps 753 mmHg 50%
    11:00 +16°C° 0 mm 3 mps 753 mmHg 48%
    12:00 +17°C° 0 mm 3 mps 753 mmHg 46%
    13:00 +18°C° 0 mm 3 mps 752 mmHg 43%
    14:00 +18°C° 0 mm 3 mps 752 mmHg 43%
    15:00 +18°C° 0 mm 3 mps 751 mmHg 44%
    16:00 +18°C° 0 mm 3 mps 750 mmHg 44%
    17:00 +17°C° 0 mm 3 mps 750 mmHg 47%
    18:00 +16°C° 0 mm 2 mps 750 mmHg 51%
    19:00 +15°C° 0 mm 2 mps 749 mmHg 55%
    20:00 +14°C° 0 mm 2 mps 749 mmHg 56%
    21:00 +14°C° 0 mm 2 mps 749 mmHg 58%
    22:00 +13°C° 0 mm 2 mps 749 mmHg 60%
    23:00 +13°C° 0 mm 2 mps 748 mmHg 60%

    13 April, Monday

    Time Temperature Precipitation Wind Pressure Humidity
    00:00 +12°C° 0 mm 2 mps 748 mmHg 59%
    01:00 +12°C° 0 mm 2 mps 748 mmHg 59%
    02:00 +12°C° 0 mm 2 mps 747 mmHg 61%
    03:00 +12°C° 0 mm 2 mps 747 mmHg 64%
    04:00 +12°C° 0 mm 2 mps 747 mmHg 66%
    05:00 +11°C° 0 mm 3 mps 747 mmHg 66%
    06:00 +11°C° 0 mm 3 mps 747 mmHg 66%
    07:00 +12°C° 0 mm 3 mps 746 mmHg 67%
    08:00 +14°C° 0 mm 4 mps 746 mmHg 62%
    09:00 +15°C° 0 mm 4 mps 746 mmHg 58%
    10:00 +18°C° 0 mm 4 mps 746 mmHg 54%
    11:00 +19°C° 0 mm 5 mps 745 mmHg 50%
    12:00 +20°C° 0 mm 5 mps 745 mmHg 46%
    13:00 +21°C° 0 mm 5 mps 744 mmHg 43%
    14:00 +21°C° 0.4 mm 5 mps 744 mmHg 45%
    15:00 +21°C° 0.4 mm 5 mps 743 mmHg 48%
    16:00 +21°C° 0.4 mm 4 mps 743 mmHg 50%
    17:00 +19°C° 0.1 mm 3 mps 742 mmHg 56%
    18:00 +17°C° 0.1 mm 2 mps 742 mmHg 62%
    19:00 +16°C° 0.1 mm 1 mps 742 mmHg 69%
    20:00 +15°C° 0.3 mm 2 mps 742 mmHg 68%
    21:00 +15°C° 0.3 mm 2 mps 742 mmHg 68%
    22:00 +14°C° 0.3 mm 3 mps 742 mmHg 68%
    23:00 +14°C° 0 mm 2 mps 742 mmHg 72%

    14 April, Tuesday

    Time Temperature Precipitation Wind Pressure Humidity
    00:00 +13°C° 0 mm 2 mps 742 mmHg 77%
    01:00 +13°C° 0 mm 2 mps 741 mmHg 82%
    02:00 +12°C° 0 mm 2 mps 742 mmHg 83%
    03:00 +12°C° 0 mm 2 mps 742 mmHg 85%
    04:00 +11°C° 0 mm 3 mps 742 mmHg 86%
    05:00 +11°C° 0 mm 3 mps 743 mmHg 83%
    06:00 +11°C° 0 mm 4 mps 743 mmHg 80%
    07:00 +10°C° 0 mm 5 mps 744 mmHg 77%
    08:00 +10°C° 0 mm 5 mps 745 mmHg 69%
    09:00 +9°C° 0 mm 5 mps 746 mmHg 62%
    10:00 +9°C° 0 mm 5 mps 747 mmHg 54%
    11:00 +9°C° 0 mm 5 mps 747 mmHg 49%
    12:00 +10°C° 0 mm 5 mps 748 mmHg 45%
    13:00 +10°C° 0 mm 5 mps 749 mmHg 40%
    14:00 +11°C° 0 mm 4 mps 749 mmHg 38%
    15:00 +11°C° 0 mm 4 mps 749 mmHg 37%
    16:00 +10°C° 0 mm 4 mps 749 mmHg 35%
    17:00 +9°C° 0 mm 3 mps 749 mmHg 41%
    18:00 +8°C° 0 mm 2 mps 750 mmHg 47%
    19:00 +6°C° 0 mm 2 mps 750 mmHg 53%
    20:00 +6°C° 0 mm 2 mps 751 mmHg 56%
    21:00 +5°C° 0 mm 2 mps 751 mmHg 59%
    22:00 +5°C° 0 mm 2 mps 752 mmHg 62%
    23:00 +5°C° 0 mm 1 mps 752 mmHg 64%

    15 April, Wednesday

    Time Temperature Precipitation Wind Pressure Humidity
    00:00 +5°C° 0 mm 1 mps 752 mmHg 66%
    01:00 +5°C° 0 mm 1 mps 752 mmHg 68%
    02:00 +4°C° 0 mm 1 mps 752 mmHg 69%
    03:00 +4°C° 0 mm 1 mps 752 mmHg 70%
    04:00 +4°C° 0 mm 1 mps 752 mmHg 71%
    05:00 +5°C° 0 mm 1 mps 752 mmHg 66%
    06:00 +5°C° 0 mm 1 mps 752 mmHg 62%
    07:00 +6°C° 0 mm 1 mps 752 mmHg 58%
    08:00 +7°C° 0 mm 2 mps 752 mmHg 52%
    09:00 +8°C° 0 mm 2 mps 752 mmHg 45%
    10:00 +10°C° 0 mm 2 mps 752 mmHg 39%
    11:00 +12°C° 0 mm 2 mps 752 mmHg 37%
    12:00 +13°C° 0 mm 2 mps 752 mmHg 35%
    13:00 +14°C° 0 mm 2 mps 751 mmHg 33%
    14:00 +14°C° 0 mm 2 mps 751 mmHg 34%
    15:00 +14°C° 0 mm 1 mps 751 mmHg 34%
    16:00 +14°C° 0 mm 1 mps 750 mmHg 34%
    17:00 +12°C° 0 mm 1 mps 750 mmHg 39%
    18:00 +11°C° 0 mm 1 mps 750 mmHg 45%
    19:00 +10°C° 0 mm 1 mps 750 mmHg 50%
    20:00 +9°C° 0 mm 1 mps 750 mmHg 51%
    21:00 +8°C° 0 mm 1 mps 751 mmHg 53%
    22:00 +8°C° 0 mm 1 mps 751 mmHg 55%
    23:00 +7°C° 0 mm 1 mps 751 mmHg 56%
    Show more